[[{"header":{"parameterUnit":"m.s-1","parameterCategory":1,"la1":30.2991,"la2":30.254,"lo1":-89.0895,"lo2":-89.0444,"dy":0.0017,"dx":0.0017,"nx":28,"ny":28,"refTime":"2023-04-20T21:00:00:Z","depth":0,"parameterNumber":2,"parameterNumberName":"U-component_of_WINDS"},"data":[0,0,0,0,0,0,0,0,0,0,0,0,0,0,0,0,0,0,0,0,0,0,0,0,0,0,0,0,0,0,0,0,0,0,0,0,0,0,0,0,0,0,0,0,0,0,0,0,0,0,0,0,0,0,0,0,0,0,0.3081,0.3081,0,0.3045,0.3044,0.3044,0.3021,0.3021,0.3021,0.3021,0.2983,0.2983,0.2982,0,0,0,0,0,0,0,0,0,0,0,0,0,0.3132,0.3131,0.3081,0.3081,0.3081,0.3045,0.3044,0.3044,0.3022,0.3021,0.3021,0.3021,0.2984,0.2983,0.2982,0,0,0,0,0,0,0,0,0,0,0,0,0,0.3104,0.3131,0.3082,0.3065,0.3063,0.3045,0.3044,0.3044,0.3022,0.3021,0.3021,0.3021,0.2984,0.2983,0.2981,0.2977,0,0,0.2977,0.2977,0,0,0,0,0,0,0,0,0.3106,0.3102,0.3068,0.3066,0.3064,0.3038,0.3048,0.3021,0.3022,0.3037,0.3021,0.3021,0.3002,0.2999,0.2992,0.2975,0.2973,0.2977,0.2976,0.2976,0.2975,0,0,0,0,0,0,0,0.3108,0.3104,0.3067,0.3068,0.3065,0.306,0.3055,0.3043,0.3021,0.3036,0.3034,0.303,0.3,0.2994,0.2991,0.2973,0.2977,0.2976,0.2975,0.2975,0.2949,0.2949,0,0,0,0,0,0,0.3112,0.3106,0.3068,0.3066,0.3085,0.3059,0.3054,0.3046,0.3021,0.3017,0.303,0.3029,0.2996,0.2993,0.299,0.2982,0.2976,0.2975,0.2974,0.2949,0.2949,0.2949,0,0,0,0,0,0,0.3113,0.3109,0.307,0.3085,0.308,0.3058,0.3049,0.3046,0.3039,0.3017,0.3013,0.3028,0.2996,0.2992,0.298,0.2981,0.2974,0.2973,0.2949,0.2949,0.2949,0.2967,0,0,0,0,0,0,0.3115,0.311,0.3108,0.3085,0.3079,0.306,0.3049,0.3045,0.3036,0.3035,0.3013,0.3009,0.2995,0.2982,0.2979,0.2979,0.2972,0.2949,0.2949,0.2949,0.2966,0.2968,0.2969,0,0,0,0,0,0.3117,0.3114,0.3108,0.3103,0.3076,0.3061,0.3057,0.3041,0.3037,0.3034,0.302,0.301,0.2981,0.2981,0.2977,0.2977,0.2949,0.2949,0.2949,0.2966,0.2968,0.2969,0,0,0,0,0,0,0.3137,0.3111,0.3103,0.3093,0.3079,0.3057,0.3053,0.3044,0.303,0.3029,0.301,0.3006,0.2996,0.2985,0.2985,0.297,0.2964,0.2963,0.2978,0.2979,0.2981,0.2983,0.2971,0,0,0,0,0,0.314,0.313,0.3108,0.3101,0.3094,0.3075,0.3068,0.3057,0.3042,0.3036,0.3021,0.3006,0.2994,0.2986,0.2974,0.2965,0.296,0.2963,0.2964,0.2965,0.2965,0.2959,0.296,0.295,0.295,0.295,0,0,0.3147,0.3131,0.3126,0.3105,0.3092,0.3082,0.307,0.306,0.3052,0.3034,0.3022,0.3011,0.2993,0.2983,0.2978,0.2974,0.2967,0.2966,0.2967,0.2966,0.296,0.2961,0.2961,0.2951,0.2951,0.2951,0,0,0.3153,0.3141,0.3134,0.3122,0.3104,0.3091,0.3089,0.3068,0.306,0.3048,0.3034,0.3024,0.3004,0.2992,0.2983,0.2985,0.2975,0.2982,0.2989,0.2984,0.2984,0.2985,0.2985,0.2986,0.2982,0.2982,0.2982,0,0.3164,0.3147,0.3131,0.3121,0.3112,0.3096,0.3088,0.3078,0.3056,0.305,0.3047,0.302,0.3007,0.2994,0.2995,0.2988,0.2985,0.2984,0.2986,0.2986,0.2986,0.2987,0.2987,0.2983,0.2982,0.2982,0.2982,0,0.3161,0.315,0.3146,0.3126,0.3117,0.3108,0.3091,0.3083,0.3073,0.3061,0.3049,0.3033,0.3017,0.3013,0.3003,0.2998,0.2996,0.2989,0.2982,0.2988,0.2988,0.2988,0.2984,0.2983,0.2983,0.2983,0,0,0.3178,0.315,0.3148,0.3139,0.3118,0.3109,0.31,0.3084,0.3078,0.3064,0.3056,0.3039,0.3032,0.3022,0.3011,0.3007,0.3009,0.3,0.2999,0.3002,0.3002,0.3007,0.3008,0.3003,0.3003,0.3003,0.3004,0,0.3181,0.3164,0.3149,0.3137,0.3127,0.3111,0.3103,0.3089,0.3078,0.3067,0.3054,0.3043,0.3035,0.3029,0.3024,0.301,0.3009,0.301,0.2994,0.2994,0.2998,0.3008,0.3013,0.3014,0.3004,0.3003,0.3003,0,0.3182,0.3169,0.3156,0.3136,0.3131,0.3124,0.3108,0.3099,0.3083,0.3075,0.3064,0.3052,0.3042,0.3036,0.3021,0.3022,0.3015,0.3008,0.3007,0.3005,0.2999,0.3005,0.3015,0.3015,0.3003,0.3003,0.3003,0,0.3196,0.3174,0.3164,0.3156,0.3133,0.3128,0.3118,0.3102,0.3094,0.308,0.3075,0.306,0.3052,0.3041,0.3026,0.3023,0.3013,0.3006,0.3005,0.3006,0.3003,0.3003,0.3011,0.3,0.3,0.3,0.3,0,0.32,0.3193,0.3169,0.3163,0.3154,0.3137,0.3129,0.3118,0.3104,0.3094,0.308,0.3072,0.3053,0.3042,0.303,0.302,0.3016,0.3009,0.3006,0.301,0.3011,0.3005,0.3004,0.3,0.3,0.3,0.3,0,0.3213,0.3197,0.3185,0.3164,0.3158,0.3153,0.3134,0.3127,0.3115,0.3104,0.31,0.3081,0.3068,0.3052,0.3034,0.3026,0.3016,0.3012,0.3022,0.302,0.302,0.302,0.3024,0.3023,0.3012,0.3013,0.3013,0,0.3217,0.321,0.3189,0.3182,0.3172,0.3161,0.3152,0.3136,0.3127,0.3109,0.3104,0.309,0.3077,0.3057,0.3042,0.3028,0.3022,0.3025,0.302,0.3024,0.3022,0.3022,0.3021,0.3026,0.3026,0.3026,0.3026,0,0.3224,0.3217,0.3205,0.319,0.318,0.3168,0.3155,0.315,0.3131,0.3122,0.3108,0.3099,0.308,0.3066,0.305,0.304,0.303,0.3028,0.3027,0.3031,0.3036,0.3033,0.3024,0.3028,0.3027,0.3027,0.3027,0.3027,0.3232,0.3226,0.321,0.3197,0.3185,0.3174,0.3166,0.3153,0.3141,0.3125,0.3116,0.3103,0.3087,0.3064,0.3054,0.3044,0.304,0.3039,0.3038,0.3038,0.3039,0.3039,0.3041,0.3041,0.3041,0.3041,0.3041,0,0.3239,0.3228,0.3216,0.3198,0.3188,0.318,0.3165,0.3157,0.3146,0.3132,0.312,0.3104,0.3091,0.3075,0.306,0.3054,0.3049,0.3051,0.3051,0.3049,0.3043,0.3045,0.3055,0.3055,0.3055,0.3055,0.3055,0.3055,0.3241,0.323,0.3221,0.3204,0.3192,0.3179,0.3171,0.3161,0.3149,0.3133,0.3121,0.3111,0.3096,0.308,0.3067,0.3063,0.3058,0.3061,0.3055,0.305,0.3049,0.3048,0.305,0.306,0.306,0.3061,0.3061,0.3061]},{"header":{"parameterUnit":"m.s-1","parameterCategory":1,"la1":30.2991,"la2":30.254,"lo1":-89.0895,"lo2":-89.0444,"dy":0.0017,"dx":0.0017,"nx":28,"ny":28,"refTime":"2023-04-20T21:00:00:Z","depth":0,"parameterNumber":3,"parameterNumberName":"V-component_of_WINDS"},"data":[0,0,0,0,0,0,0,0,0,0,0,0,0,0,0,0,0,0,0,0,0,0,0,0,0,0,0,0,0,0,0,0,0,0,0,0,0,0,0,0,0,0,0,0,0,0,0,0,0,0,0,0,0,0,0,0,0,0,-1.679,-1.679,0,-1.6806,-1.6806,-1.6806,-1.6785,-1.6784,-1.6784,-1.6783,-1.6801,-1.6802,-1.6803,0,0,0,0,0,0,0,0,0,0,0,0,0,-1.6745,-1.6746,-1.679,-1.679,-1.679,-1.6806,-1.6806,-1.6806,-1.6785,-1.6784,-1.6783,-1.6783,-1.68,-1.6802,-1.6803,0,0,0,0,0,0,0,0,0,0,0,0,0,-1.6763,-1.6746,-1.679,-1.6782,-1.6781,-1.6806,-1.6806,-1.6806,-1.6786,-1.6784,-1.6783,-1.6782,-1.68,-1.6802,-1.6803,-1.6837,0,0,-1.6809,-1.681,0,0,0,0,0,0,0,0,-1.6762,-1.6765,-1.6783,-1.6782,-1.6782,-1.6792,-1.6797,-1.6817,-1.6786,-1.6784,-1.6783,-1.6782,-1.6799,-1.6801,-1.6806,-1.6838,-1.6839,-1.6809,-1.681,-1.6811,-1.6811,0,0,0,0,0,0,0,-1.6761,-1.6764,-1.6796,-1.6783,-1.6782,-1.6778,-1.678,-1.68,-1.6798,-1.6784,-1.6782,-1.6785,-1.6798,-1.6805,-1.6807,-1.6839,-1.6809,-1.681,-1.6812,-1.6812,-1.6903,-1.6905,0,0,0,0,0,0,-1.676,-1.6763,-1.6796,-1.6797,-1.6769,-1.678,-1.6782,-1.679,-1.6797,-1.6797,-1.6786,-1.6784,-1.6802,-1.6805,-1.6807,-1.685,-1.6811,-1.6812,-1.6813,-1.6902,-1.6904,-1.6905,0,0,0,0,0,0,-1.6759,-1.6763,-1.6795,-1.6779,-1.6783,-1.6782,-1.6792,-1.6791,-1.6797,-1.6799,-1.6798,-1.6792,-1.6801,-1.6805,-1.6831,-1.685,-1.6813,-1.6815,-1.69,-1.6903,-1.6904,-1.6933,0,0,0,0,0,0,-1.6758,-1.6763,-1.6775,-1.678,-1.6784,-1.6817,-1.6793,-1.6792,-1.68,-1.6798,-1.6805,-1.6805,-1.6801,-1.6828,-1.6832,-1.6852,-1.6816,-1.6899,-1.6901,-1.6904,-1.6931,-1.6936,-1.6941,0,0,0,0,0,-1.6756,-1.6782,-1.6775,-1.6779,-1.6799,-1.6818,-1.6821,-1.6815,-1.6802,-1.6814,-1.6816,-1.6805,-1.6847,-1.6831,-1.6836,-1.6856,-1.6898,-1.6901,-1.6904,-1.6929,-1.6935,-1.6941,0,0,0,0,0,0,-1.6779,-1.6782,-1.6775,-1.6803,-1.6811,-1.6815,-1.683,-1.6822,-1.6834,-1.6831,-1.6824,-1.6826,-1.6855,-1.6858,-1.684,-1.6891,-1.687,-1.6874,-1.6888,-1.6894,-1.6899,-1.6898,-1.6818,0,0,0,0,0,-1.6787,-1.6802,-1.6804,-1.6829,-1.6833,-1.6831,-1.684,-1.6835,-1.6843,-1.6846,-1.6849,-1.6858,-1.6874,-1.6884,-1.6898,-1.6931,-1.6934,-1.6948,-1.6953,-1.6957,-1.6961,-1.6982,-1.6988,-1.6915,-1.6915,-1.6915,0,0,-1.6804,-1.6808,-1.6817,-1.6833,-1.6839,-1.6856,-1.6834,-1.6852,-1.6865,-1.6849,-1.6874,-1.6877,-1.6887,-1.6917,-1.6931,-1.6921,-1.6982,-1.6961,-1.6964,-1.6966,-1.6985,-1.6992,-1.6999,-1.6917,-1.6917,-1.6917,0,0,-1.6844,-1.6847,-1.6869,-1.6876,-1.6884,-1.6884,-1.6889,-1.6895,-1.6897,-1.6922,-1.6911,-1.6927,-1.6953,-1.6961,-1.6969,-1.7015,-1.7006,-1.702,-1.7047,-1.7067,-1.7073,-1.7078,-1.7097,-1.7103,-1.7024,-1.7024,-1.7024,0,-1.6864,-1.6888,-1.6882,-1.6901,-1.691,-1.6896,-1.692,-1.6926,-1.694,-1.6947,-1.6935,-1.697,-1.6975,-1.7009,-1.702,-1.7026,-1.7034,-1.7019,-1.7073,-1.7078,-1.7082,-1.71,-1.7107,-1.7026,-1.7026,-1.7025,-1.7025,0,-1.6914,-1.6931,-1.6948,-1.6962,-1.6972,-1.6993,-1.6992,-1.7003,-1.6999,-1.7,-1.7027,-1.7034,-1.705,-1.7058,-1.7053,-1.7092,-1.7086,-1.7073,-1.7053,-1.7091,-1.7108,-1.7115,-1.7028,-1.7028,-1.7027,-1.7027,0,0,-1.6967,-1.6978,-1.6985,-1.6992,-1.7002,-1.7016,-1.7038,-1.7054,-1.7066,-1.7076,-1.7096,-1.712,-1.711,-1.7118,-1.7114,-1.7132,-1.7172,-1.7118,-1.7119,-1.713,-1.7218,-1.7228,-1.7236,-1.7166,-1.7167,-1.7168,-1.7218,0,-1.7008,-1.7046,-1.7042,-1.7078,-1.7096,-1.7085,-1.7104,-1.7114,-1.7116,-1.7132,-1.7135,-1.7153,-1.7137,-1.7142,-1.716,-1.7163,-1.719,-1.716,-1.7186,-1.7187,-1.7185,-1.7245,-1.7254,-1.7301,-1.7225,-1.7226,-1.7226,0,-1.7061,-1.7074,-1.7112,-1.7122,-1.7129,-1.7147,-1.7163,-1.7178,-1.719,-1.7191,-1.7202,-1.7196,-1.722,-1.7199,-1.7234,-1.7214,-1.7225,-1.7229,-1.723,-1.7233,-1.721,-1.7251,-1.7316,-1.7324,-1.7236,-1.7235,-1.7235,0,-1.7098,-1.7125,-1.7152,-1.7159,-1.717,-1.7184,-1.7189,-1.72,-1.7211,-1.7226,-1.7233,-1.725,-1.726,-1.7275,-1.7275,-1.7259,-1.7311,-1.7289,-1.7314,-1.7314,-1.7326,-1.7325,-1.7395,-1.7331,-1.7331,-1.7331,-1.733,0,-1.7145,-1.717,-1.7169,-1.7186,-1.7214,-1.7211,-1.7239,-1.7243,-1.7253,-1.7272,-1.7263,-1.7282,-1.728,-1.7299,-1.7299,-1.7329,-1.7333,-1.7336,-1.7336,-1.7337,-1.7337,-1.7345,-1.7342,-1.7332,-1.7332,-1.7332,-1.7331,0,-1.7191,-1.7192,-1.7221,-1.7231,-1.7234,-1.7254,-1.7263,-1.728,-1.7283,-1.7307,-1.7313,-1.7317,-1.7339,-1.734,-1.7366,-1.7366,-1.7404,-1.7399,-1.74,-1.7399,-1.7425,-1.7423,-1.7503,-1.7514,-1.7441,-1.7442,-1.7443,0,-1.7222,-1.724,-1.7253,-1.7265,-1.7271,-1.729,-1.7302,-1.7301,-1.7313,-1.733,-1.7346,-1.7367,-1.7384,-1.742,-1.7427,-1.7447,-1.7444,-1.7471,-1.7447,-1.7449,-1.7447,-1.7446,-1.7449,-1.7475,-1.7476,-1.7477,-1.7477,0,-1.7276,-1.7277,-1.7293,-1.7312,-1.7326,-1.734,-1.7353,-1.7364,-1.7364,-1.7379,-1.7402,-1.7415,-1.7443,-1.7465,-1.7485,-1.7493,-1.7486,-1.7485,-1.7492,-1.7494,-1.7495,-1.7497,-1.7414,-1.7483,-1.7482,-1.7482,-1.7482,-1.7481,-1.7317,-1.7334,-1.7346,-1.7366,-1.7376,-1.7389,-1.7407,-1.7412,-1.7431,-1.7452,-1.7451,-1.7477,-1.7491,-1.7517,-1.7527,-1.7548,-1.7539,-1.7549,-1.7552,-1.7555,-1.7558,-1.749,-1.7552,-1.7552,-1.7551,-1.7551,-1.7551,0,-1.7373,-1.738,-1.7399,-1.7418,-1.7435,-1.7427,-1.7442,-1.7457,-1.7479,-1.7493,-1.751,-1.7538,-1.7561,-1.757,-1.7592,-1.7608,-1.7606,-1.7614,-1.7613,-1.7616,-1.7564,-1.7556,-1.7616,-1.7616,-1.7616,-1.7616,-1.7616,-1.7616,-1.7404,-1.7433,-1.7435,-1.7471,-1.7479,-1.7504,-1.7514,-1.7527,-1.7538,-1.7569,-1.7588,-1.7593,-1.7606,-1.763,-1.7651,-1.7653,-1.7663,-1.7673,-1.7674,-1.7625,-1.7619,-1.7613,-1.7606,-1.7674,-1.7675,-1.7724,-1.7725,-1.7725]}]]